| time (UTC) | temp C | wind direction | speed KPH | gust KPH | rain 1hr cm | rain 24hr cm | rain mn cm | humidity % | barometer mb |
| 20260509113116 | 19 | 0.0 | 1.6 | 0.00 | 0.00 | 0.00 | 90 | 1008.8 | |
| 20260509112116 | 19 | 135 | 3.2 | 6.4 | 0.00 | 0.00 | 0.00 | 90 | 1008.7 |
| 20260509111136 | 19 | 135 | 3.2 | 6.4 | 0.00 | 0.00 | 0.00 | 90 | 1008.7 |
| 20260509110116 | 19 | 0 | 1.6 | 3.2 | 0.00 | 0.00 | 0.00 | 90 | 1008.6 |
| 20260509105136 | 19 | 135 | 1.6 | 1.6 | 0.00 | 0.00 | 0.00 | 90 | 1008.4 |
| 20260509104136 | 19 | 0.0 | 1.6 | 0.00 | 0.00 | 0.00 | 89 | 1008.4 | |
| 20260509103116 | 19 | 135 | 1.6 | 1.6 | 0.00 | 0.00 | 0.00 | 89 | 1008.3 |
| 20260509102116 | 19 | 113 | 1.6 | 3.2 | 0.00 | 0.00 | 0.00 | 89 | 1008.1 |
| 20260509101116 | 19 | 90 | 1.6 | 3.2 | 0.00 | 0.00 | 0.00 | 88 | 1008.1 |
| 20260509100116 | 19 | 90 | 1.6 | 4.8 | 0.00 | 0.00 | 0.00 | 89 | 1007.9 |
| 20260509095116 | 20 | 90 | 4.8 | 6.4 | 0.00 | 0.00 | 0.00 | 88 | 1008.1 |
| 20260509094116 | 20 | 90 | 6.4 | 9.7 | 0.00 | 0.00 | 0.00 | 88 | 1008.0 |
| 20260509093116 | 20 | 90 | 4.8 | 9.7 | 0.00 | 0.00 | 0.00 | 88 | 1008.0 |
| 20260509092116 | 20 | 68 | 4.8 | 8.0 | 0.00 | 0.00 | 0.00 | 88 | 1008.1 |
| 20260509091116 | 20 | 90 | 6.4 | 11.3 | 0.00 | 0.00 | 0.00 | 88 | 1008.1 |
| 20260509090116 | 20 | 23 | 4.8 | 6.4 | 0.00 | 0.00 | 0.00 | 88 | 1008.2 |
| 20260509085116 | 20 | 90 | 4.8 | 8.0 | 0.00 | 0.00 | 0.00 | 87 | 1008.2 |
| 20260509084116 | 20 | 0 | 4.8 | 8.0 | 0.00 | 0.00 | 0.00 | 87 | 1008.2 |
| 20260509083116 | 20 | 68 | 4.8 | 8.0 | 0.00 | 0.00 | 0.00 | 87 | 1008.1 |
| 20260509082116 | 20 | 68 | 8.0 | 9.7 | 0.00 | 0.00 | 0.00 | 87 | 1008.2 |
| 20260509081116 | 20 | 0 | 4.8 | 8.0 | 0.00 | 0.00 | 0.00 | 87 | 1008.3 |
| 20260509080116 | 20 | 0 | 3.2 | 6.4 | 0.00 | 0.00 | 0.00 | 87 | 1008.5 |
| 20260509075116 | 20 | 0 | 4.8 | 8.0 | 0.00 | 0.00 | 0.00 | 86 | 1008.7 |
| 20260509074116 | 20 | 0 | 8.0 | 11.3 | 0.00 | 0.00 | 0.00 | 86 | 1008.6 |
| 20260509073116 | 20 | 113 | 3.2 | 4.8 | 0.00 | 0.00 | 0.00 | 86 | 1008.8 |
| 20260509072116 | 20 | 90 | 4.8 | 8.0 | 0.00 | 0.00 | 0.00 | 85 | 1008.8 |
| 20260509071116 | 20 | 0 | 4.8 | 6.4 | 0.00 | 0.00 | 0.00 | 85 | 1008.7 |
| 20260509070116 | 20 | 0 | 11.3 | 14.5 | 0.00 | 0.00 | 0.00 | 84 | 1008.9 |
| 20260509065116 | 20 | 0 | 8.0 | 11.3 | 0.00 | 0.00 | 0.00 | 84 | 1009.1 |
| 20260509064116 | 20 | 0 | 4.8 | 8.0 | 0.00 | 0.00 | 0.00 | 83 | 1009.4 |
| 20260509063116 | 21 | 0 | 6.4 | 22.5 | 0.00 | 0.00 | 0.00 | 83 | 1009.3 |
| 20260509062116 | 21 | 0 | 8.0 | 11.3 | 0.00 | 0.00 | 0.00 | 83 | 1009.3 |
| 20260509061116 | 21 | 0 | 6.4 | 9.7 | 0.00 | 0.00 | 0.00 | 83 | 1009.4 |
| 20260509060116 | 21 | 135 | 3.2 | 8.0 | 0.00 | 0.00 | 0.00 | 83 | 1009.6 |
| 20260509055115 | 21 | 90 | 4.8 | 6.4 | 0.00 | 0.00 | 0.00 | 82 | 1010.0 |
| 20260509054115 | 21 | 0 | 4.8 | 8.0 | 0.00 | 0.00 | 0.00 | 82 | 1010.1 |
| 20260509053115 | 21 | 68 | 8.0 | 11.3 | 0.00 | 0.00 | 0.00 | 82 | 1009.9 |
| 20260509052116 | 21 | 90 | 8.0 | 9.7 | 0.00 | 0.00 | 0.00 | 81 | 1009.5 |
| 20260509051115 | 21 | 90 | 3.2 | 8.0 | 0.00 | 0.00 | 0.00 | 81 | 1009.5 |
| 20260509050115 | 21 | 90 | 8.0 | 9.7 | 0.00 | 0.00 | 0.00 | 81 | 1009.5 |
| 20260509045137 | 21 | 90 | 4.8 | 6.4 | 0.00 | 0.00 | 0.00 | 81 | 1009.2 |
| 20260509044117 | 21 | 0 | 8.0 | 11.3 | 0.00 | 0.00 | 0.00 | 80 | 1008.6 |
| 20260509043137 | 21 | 0 | 6.4 | 9.7 | 0.00 | 0.00 | 0.00 | 80 | 1008.5 |
| 20260509042137 | 21 | 0 | 6.4 | 8.0 | 0.00 | 0.00 | 0.00 | 80 | 1008.9 |
| 20260509041117 | 21 | 0 | 8.0 | 11.3 | 0.00 | 0.00 | 0.00 | 80 | 1008.6 |
| 20260509040117 | 21 | 0 | 9.7 | 11.3 | 0.00 | 0.00 | 0.00 | 79 | 1009.1 |
| 20260509035137 | 21 | 0 | 6.4 | 12.9 | 0.00 | 0.00 | 0.00 | 79 | 1008.6 |
| 20260509034117 | 21 | 0 | 9.7 | 14.5 | 0.00 | 0.00 | 0.00 | 79 | 1008.0 |
| 20260509033117 | 21 | 0 | 4.8 | 6.4 | 0.00 | 0.00 | 0.00 | 78 | 1008.1 |
| 20260509032117 | 21 | 0 | 4.8 | 8.0 | 0.00 | 0.00 | 0.00 | 78 | 1007.9 |
| 20260509031137 | 22 | 0 | 4.8 | 8.0 | 0.00 | 0.00 | 0.00 | 77 | 1008.2 |
| 20260509030117 | 22 | 0 | 3.2 | 6.4 | 0.00 | 0.00 | 0.00 | 77 | 1008.4 |
| 20260509025117 | 22 | 0 | 4.8 | 8.0 | 0.00 | 0.00 | 0.00 | 77 | 1008.2 |
| 20260509024117 | 22 | 0 | 6.4 | 11.3 | 0.00 | 0.00 | 0.00 | 76 | 1008.3 |
| 20260509023137 | 22 | 0 | 6.4 | 11.3 | 0.00 | 0.00 | 0.00 | 76 | 1008.2 |
| 20260509022117 | 22 | 0 | 6.4 | 9.7 | 0.00 | 0.00 | 0.00 | 75 | 1008.1 |
| 20260509021117 | 22 | 0 | 8.0 | 12.9 | 0.00 | 0.00 | 0.00 | 75 | 1008.3 |
| 20260509020117 | 23 | 0 | 8.0 | 11.3 | 0.00 | 0.00 | 0.00 | 74 | 1008.5 |
| 20260509015117 | 23 | 0 | 6.4 | 8.0 | 0.00 | 0.00 | 0.00 | 74 | 1008.0 |
| 20260509014117 | 23 | 0 | 8.0 | 11.3 | 0.00 | 0.00 | 0.00 | 73 | 1007.6 |
| 20260509013116 | 23 | 0 | 9.7 | 12.9 | 0.00 | 0.00 | 0.00 | 72 | 1007.5 |
| 20260509012137 | 23 | 0 | 8.0 | 11.3 | 0.00 | 0.00 | 0.00 | 72 | 1007.7 |
| 20260509011117 | 23 | 0 | 6.4 | 11.3 | 0.00 | 0.00 | 0.00 | 71 | 1007.4 |
| 20260509010116 | 23 | 0 | 8.0 | 11.3 | 0.00 | 0.00 | 0.00 | 71 | 1007.3 |
| 20260509005117 | 24 | 0 | 6.4 | 9.7 | 0.00 | 0.00 | 0.00 | 70 | 1007.2 |
| 20260509004116 | 24 | 0 | 8.0 | 11.3 | 0.00 | 0.00 | 0.00 | 69 | 1007.1 |
| 20260509003117 | 24 | 0 | 9.7 | 11.3 | 0.00 | 0.00 | 0.00 | 68 | 1007.1 |
| 20260509002116 | 25 | 0 | 11.3 | 16.1 | 0.00 | 0.00 | 0.00 | 66 | 1007.1 |
| 20260509001117 | 25 | 0 | 9.7 | 14.5 | 0.00 | 0.00 | 0.00 | 66 | 1006.9 |
| 20260509000117 | 25 | 0 | 9.7 | 14.5 | 0.00 | 0.00 | 0.00 | 66 | 1006.6 |
| 20260508235116 | 25 | 0 | 14.5 | 19.3 | 0.00 | 0.00 | 0.00 | 65 | 1006.7 |
| 20260508234117 | 26 | 0 | 11.3 | 14.5 | 0.00 | 0.00 | 0.00 | 64 | 1006.6 |
| 20260508233116 | 26 | 0 | 9.7 | 17.7 | 0.00 | 0.00 | 0.00 | 63 | 1006.5 |
| 20260508232116 | 26 | 0 | 6.4 | 12.9 | 0.00 | 0.00 | 0.00 | 62 | 1006.5 |
| 20260508231116 | 26 | 0 | 12.9 | 17.7 | 0.00 | 0.00 | 0.00 | 61 | 1006.6 |
| 20260508230116 | 26 | 0 | 14.5 | 17.7 | 0.00 | 0.00 | 0.00 | 62 | 1006.8 |
| 20260508225116 | 26 | 0 | 11.3 | 17.7 | 0.00 | 0.00 | 0.00 | 61 | 1006.9 |
| 20260508224116 | 26 | 0 | 8.0 | 14.5 | 0.00 | 0.00 | 0.00 | 61 | 1006.9 |
| 20260508223116 | 26 | 0 | 14.5 | 20.9 | 0.00 | 0.00 | 0.00 | 59 | 1007.0 |
| 20260508222116 | 26 | 0 | 8.0 | 14.5 | 0.00 | 0.00 | 0.00 | 58 | 1007.0 |
| 20260508221116 | 26 | 0 | 8.0 | 9.7 | 0.00 | 0.00 | 0.00 | 58 | 1007.1 |
| 20260508220116 | 26 | 0 | 11.3 | 16.1 | 0.00 | 0.00 | 0.00 | 58 | 1007.1 |
| 20260508215116 | 26 | 0 | 11.3 | 16.1 | 0.00 | 0.00 | 0.00 | 59 | 1007.3 |
| 20260508214116 | 26 | 0 | 11.3 | 16.1 | 0.00 | 0.00 | 0.00 | 59 | 1007.5 |
| 20260508213116 | 26 | 0 | 12.9 | 24.1 | 0.00 | 0.00 | 0.00 | 60 | 1007.7 |
| 20260508212116 | 26 | 0 | 12.9 | 17.7 | 0.00 | 0.00 | 0.00 | 58 | 1007.9 |
| 20260508211116 | 26 | 0 | 8.0 | 11.3 | 0.00 | 0.00 | 0.00 | 59 | 1007.9 |
| 20260508210116 | 26 | 0 | 8.0 | 16.1 | 0.00 | 0.00 | 0.00 | 59 | 1008.1 |
| 20260508205116 | 26 | 0 | 14.5 | 19.3 | 0.00 | 0.00 | 0.00 | 58 | 1008.3 |
| 20260508204116 | 26 | 0 | 9.7 | 17.7 | 0.00 | 0.00 | 0.00 | 58 | 1008.5 |
| 20260508203116 | 26 | 0 | 16.1 | 22.5 | 0.00 | 0.00 | 0.00 | 57 | 1008.6 |
| 20260508202116 | 26 | 0 | 14.5 | 22.5 | 0.00 | 0.00 | 0.00 | 57 | 1008.6 |
| 20260508201136 | 26 | 0 | 12.9 | 17.7 | 0.00 | 0.00 | 0.00 | 60 | 1008.7 |
| 20260508200116 | 25 | 0 | 12.9 | 17.7 | 0.00 | 0.00 | 0.00 | 59 | 1008.8 |
| 20260508195116 | 25 | 0 | 12.9 | 20.9 | 0.00 | 0.00 | 0.00 | 58 | 1008.9 |
| 20260508194116 | 25 | 0 | 8.0 | 17.7 | 0.00 | 0.00 | 0.00 | 59 | 1008.9 |
| 20260508193116 | 25 | 0 | 14.5 | 20.9 | 0.00 | 0.00 | 0.00 | 58 | 1009.1 |
| 20260508192116 | 25 | 0 | 14.5 | 17.7 | 0.00 | 0.00 | 0.00 | 59 | 1009.2 |
| 20260508191116 | 25 | 0 | 9.7 | 14.5 | 0.00 | 0.00 | 0.00 | 58 | 1009.4 |
| 20260508190116 | 24 | 0 | 8.0 | 16.1 | 0.00 | 0.00 | 0.00 | 59 | 1009.4 |
| 20260508185116 | 24 | 0 | 11.3 | 16.1 | 0.00 | 0.00 | 0.00 | 59 | 1009.6 |
| 20260508184115 | 24 | 0 | 8.0 | 12.9 | 0.00 | 0.00 | 0.00 | 59 | 1009.9 |
| 20260508183116 | 23 | 0 | 6.4 | 11.3 | 0.00 | 0.00 | 0.00 | 60 | 1010.1 |
| 20260508182115 | 23 | 0 | 9.7 | 12.9 | 0.00 | 0.00 | 0.00 | 61 | 1010.4 |
| 20260508181116 | 23 | 0 | 11.3 | 16.1 | 0.00 | 0.00 | 0.00 | 61 | 1010.7 |
| 20260508180116 | 23 | 0 | 9.7 | 17.7 | 0.00 | 0.00 | 0.00 | 62 | 1011.0 |
| 20260508175115 | 23 | 0 | 8.0 | 11.3 | 0.00 | 0.00 | 0.00 | 61 | 1011.1 |
| 20260508174116 | 23 | 0 | 8.0 | 16.1 | 0.00 | 0.00 | 0.00 | 67 | 1011.3 |
| 20260508173115 | 22 | 248 | 4.8 | 8.0 | 0.00 | 0.00 | 0.00 | 66 | 1011.3 |
| 20260508172116 | 22 | 0 | 6.4 | 9.7 | 0.00 | 0.00 | 0.00 | 66 | 1011.7 |
| 20260508171115 | 22 | 0 | 9.7 | 22.5 | 0.00 | 0.00 | 0.00 | 64 | 1011.8 |
| 20260508170116 | 22 | 0 | 6.4 | 9.7 | 0.00 | 0.00 | 0.00 | 66 | 1011.8 |
| 20260508165116 | 22 | 0 | 9.7 | 14.5 | 0.00 | 0.00 | 0.00 | 65 | 1012.2 |
| 20260508164115 | 22 | 0 | 8.0 | 11.3 | 0.00 | 0.00 | 0.00 | 65 | 1012.4 |
| 20260508163116 | 22 | 0 | 8.0 | 14.5 | 0.00 | 0.00 | 0.00 | 64 | 1012.6 |
| 20260508162115 | 21 | 0 | 1.6 | 3.2 | 0.00 | 0.00 | 0.00 | 67 | 1012.7 |
| 20260508161115 | 20 | 0 | 4.8 | 8.0 | 0.00 | 0.00 | 0.00 | 70 | 1012.7 |
| 20260508160115 | 20 | 225 | 6.4 | 9.7 | 0.00 | 0.00 | 0.00 | 74 | 1012.7 |
| 20260508155115 | 19 | 0 | 9.7 | 12.9 | 0.00 | 0.00 | 0.00 | 75 | 1012.8 |
| 20260508154115 | 19 | 0 | 3.2 | 6.4 | 0.00 | 0.00 | 0.00 | 78 | 1012.9 |
| 20260508153115 | 18 | 0 | 3.2 | 8.0 | 0.00 | 0.00 | 0.00 | 80 | 1012.8 |
| 20260508152115 | 17 | 0 | 9.7 | 11.3 | 0.00 | 0.00 | 0.00 | 80 | 1013.1 |
| 20260508151115 | 17 | 0 | 6.4 | 11.3 | 0.00 | 0.00 | 0.00 | 83 | 1013.0 |
| 20260508150115 | 16 | 0 | 3.2 | 8.0 | 0.00 | 0.00 | 0.00 | 82 | 1013.2 |
| 20260508145115 | 16 | 0 | 6.4 | 9.7 | 0.00 | 0.00 | 0.00 | 81 | 1013.4 |
| 20260508144137 | 16 | 0 | 6.4 | 9.7 | 0.00 | 0.00 | 0.00 | 81 | 1013.5 |
| 20260508143117 | 16 | 203 | 1.6 | 6.4 | 0.00 | 0.00 | 0.00 | 83 | 1013.5 |
| 20260508142117 | 16 | 0 | 3.2 | 8.0 | 0.00 | 0.00 | 0.00 | 84 | 1013.1 |
| 20260508141116 | 16 | 0 | 3.2 | 9.7 | 0.00 | 0.00 | 0.00 | 84 | 1013.0 |
| 20260508140117 | 16 | 0 | 6.4 | 8.0 | 0.00 | 0.00 | 0.00 | 83 | 1013.5 |
| 20260508135117 | 16 | 0 | 4.8 | 9.7 | 0.00 | 0.00 | 0.00 | 83 | 1013.8 |
| 20260508134117 | 16 | 0 | 6.4 | 8.0 | 0.00 | 0.00 | 0.00 | 83 | 1014.1 |
| 20260508133117 | 16 | 0 | 6.4 | 9.7 | 0.00 | 0.00 | 0.00 | 84 | 1013.9 |
| 20260508132137 | 16 | 0 | 9.7 | 19.3 | 0.00 | 0.00 | 0.00 | 85 | 1014.0 |
| 20260508131117 | 15 | 0 | 8.0 | 11.3 | 0.00 | 0.00 | 0.00 | 86 | 1013.9 |
| 20260508130117 | 15 | 0 | 8.0 | 9.7 | 0.00 | 0.00 | 0.00 | 85 | 1013.8 |
| 20260508125117 | 15 | 0 | 3.2 | 9.7 | 0.00 | 0.00 | 0.00 | 87 | 1013.8 |
| 20260508124117 | 15 | 0 | 4.8 | 11.3 | 0.00 | 0.00 | 0.00 | 86 | 1014.0 |
| 20260508123117 | 15 | 0 | 8.0 | 11.3 | 0.00 | 0.00 | 0.00 | 87 | 1014.1 |
| 20260508122117 | 15 | 0 | 6.4 | 12.9 | 0.00 | 0.00 | 0.00 | 87 | 1014.1 |
| 20260508121117 | 14 | 0 | 4.8 | 8.0 | 0.00 | 0.00 | 0.00 | 88 | 1013.9 |
| 20260508120117 | 13 | 0 | 4.8 | 8.0 | 0.00 | 0.00 | 0.00 | 88 | 1013.8 |
| 20260508115117 | 13 | 0 | 4.8 | 6.4 | 0.00 | 0.00 | 0.00 | 88 | 1013.7 |
| 20260508114117 | 13 | 0 | 3.2 | 8.0 | 0.00 | 0.00 | 0.00 | 87 | 1013.7 |